Rechercher aéroport 
image banner adimage banner adimage banner ad
image banner ad

KSMX - Santa Maria Pub/Capt G Allan Hancock Fld

Situé à Santa Maria, United States

ICAO - SMX, IATA - SMX

Données fournies par Airmate  

Information générale

Coordonnées: N34°53'60" W120°27'29"
Élévation : 261 feet MSL.
Variation magnétique : 14° East
Voir autres Aéroports à California

Données opérationnelles

Special qualification required
Heure actuelle UTC:
Heure actuelle locale:
Météo
METAR: KSMX 290851Z AUTO 02003KT 8SM OVC005 14/13 A2999 RMK AO2 SLP155 T01440128 58013
TAF: KSMX 290902Z 2909/3006 33008KT P6SM OVC005 FM291200 VRB03KT 4SM BR OVC003 FM291700 VRB03KT P6SM SCT010 FM291900 31010KT P6SM SKC FM300300 32006KT P6SM BKN007
Voir NOTAMs / SUP AIP / TFR affectant cet aéroport [VIEW]
Fréquences de communication: [VIEW]

Pistes:

Identifiant RWYQFULongueur (ft)Largeur (ft)SurfaceLDA (ft)
0236°519975ASPH5199
20216°519975ASPH5199
12135°8004150ASPH8004
30315°8004150ASPH8004

Coordonnées de l'aéroport

Adresse: Santa Maria United States

Vue satellite de KSMX